Akron Canton, OH

3:00 AM EDT on April 23, 2017 (GMT -0400)
Akron-Canton Regional

Weather History for KCAK - April, 2014

Change the Weather History Date:

Saturday, April 26, 2014

  Actual Average Record
Temperature  
Mean Temperature 52 °F 53 °F  
Max Temperature 66 °F 64 °F 89 °F (1915)
Min Temperature 38 °F 42 °F 25 °F (1972)
Degree Days  
Heating Degree Days 13 12  
Month to date heating degree days 365 433  
Since 1 July heating degree days 6204 5828  
Cooling Degree Days 0 0  
Month to date cooling degree days 3 0  
Year to date cooling degree days 3 0  
Growing Degree Days 2 (Base 50)    
Moisture  
Dew Point 39 °F    
Average Humidity 66    
Maximum Humidity 100    
Minimum Humidity 32    
Precipitation  
Precipitation T in 0.11 in 0.94 in (1998)
Month to date precipitation 3.46 3.09  
Year to date precipitation 9.55 10.99  
Snow  
Snow 0.00 in 0.00 in - ()
Month to date snowfall 0.9 2.6  
Since 1 July snowfall 69.9 47.3  
Snow Depth 0.00 in    
Sea Level Pressure  
Sea Level Pressure 29.91 in    
Wind  
Wind Speed 13 mph (WNW)    
Max Wind Speed 21 mph    
Max Gust Speed 21 mph    
Visibility 9 miles    
Events      
T = Trace of Precipitation, MM = Missing Value Source: NWS Daily Summary

Daily Weather History Graph

Daily Weather History Graph

Search for Another Location

Airport or City:

Trip Planner

Search our weather history database for the weather conditions in past years. The results will help you decide how hot, cold, wet, or windy it might be!

Date:

Astronomy

Apr. 26, 2014 Rise Set
Actual Time 6:30 AM EDT 8:17 PM EDT
Civil Twilight 6:01 AM EDT 8:46 PM EDT
Nautical Twilight 5:25 AM EDT 9:22 PM EDT
Astronomical Twilight 4:47 AM EDT 10:00 PM EDT
Moon 4:55 AM EDT (4/26) 5:42 PM EDT (4/26)
Length of Visible Light 14h 45m
Length of Day
13h 46m
Waning Crescent, 8% of the Moon is Illuminated
Apr 26
Waning Crescent
Apr 29
New
May 6
First Quarter
May 14
Full
May 21
Last Quarter

Hourly Weather History & Observations

Time (EDT) Temp. Windchill Dew Point Humidity Pressure Visibility Wind Dir Wind Speed Gust Speed Precip Events Conditions
12:11 AM 44.6 °F - 42.8 °F 93% 29.87 in 2.0 mi Calm Calm - N/A   Clear
12:51 AM 44.1 °F 41.5 °F 43.0 °F 96% 29.89 in 3.0 mi SSW 4.6 mph - N/A   Mostly Cloudy
1:51 AM 42.8 °F 40.1 °F 42.8 °F 100% 29.86 in 3.0 mi South 4.6 mph - N/A   Partly Cloudy
2:51 AM 44.1 °F 40.8 °F 43.0 °F 96% 29.86 in 4.0 mi SSW 5.8 mph - N/A   Mostly Cloudy
3:51 AM 45.0 °F 41.8 °F 43.0 °F 93% 29.85 in 6.0 mi SSW 5.8 mph - 0.00 in   Overcast
4:51 AM 46.0 °F 41.4 °F 43.0 °F 89% 29.85 in 6.0 mi SSW 9.2 mph - N/A   Overcast
5:51 AM 46.9 °F - 41.0 °F 80% 29.84 in 10.0 mi SSW 8.1 mph - N/A   Overcast
6:51 AM 48.0 °F - 41.0 °F 77% 29.84 in 10.0 mi SSW 10.4 mph - N/A   Overcast
7:51 AM 48.0 °F - 41.0 °F 77% 29.85 in 10.0 mi SSW 10.4 mph - N/A   Overcast
8:51 AM 49.3 °F - 43.0 °F 79% 29.85 in 10.0 mi SSW 10.4 mph - N/A   Overcast
9:51 AM 53.1 °F - 43.9 °F 71% 29.83 in 10.0 mi WSW 12.7 mph - N/A   Mostly Cloudy
10:51 AM 66.0 °F - 45.0 °F 47% 29.83 in 10.0 mi West 12.7 mph - N/A   Scattered Clouds
11:51 AM 64.4 °F - 44.6 °F 49% 29.84 in 10.0 mi NW 16.1 mph - N/A   Scattered Clouds
12:51 PM 64.9 °F - 45.0 °F 48% 29.86 in 10.0 mi NNW 15.0 mph - N/A   Scattered Clouds
1:51 PM 64.9 °F - 43.0 °F 45% 29.87 in 10.0 mi NNW 19.6 mph - N/A   Scattered Clouds
2:51 PM 66.0 °F - 35.8 °F 33% 29.88 in 10.0 mi NNW 19.6 mph - N/A   Scattered Clouds
3:51 PM 65.8 °F - 35.4 °F 32% 29.89 in 10.0 mi NNW 20.7 mph - N/A   Partly Cloudy
4:51 PM 66.2 °F - 35.6 °F 32% 29.92 in 10.0 mi NNW 20.7 mph - N/A   Partly Cloudy
5:51 PM 65.8 °F - 35.4 °F 32% 29.96 in 10.0 mi NNW 17.3 mph - N/A   Partly Cloudy
6:51 PM 51.4 °F - 31.3 °F 46% 29.97 in 10.0 mi North 17.3 mph - N/A   Partly Cloudy
7:51 PM 49.8 °F - 31.8 °F 50% 29.99 in 10.0 mi North 13.8 mph - N/A   Partly Cloudy
8:51 PM 46.8 °F - 31.1 °F 55% 30.01 in 10.0 mi North 13.8 mph - N/A   Scattered Clouds
9:51 PM 43.2 °F 36.2 °F 29.7 °F 59% 30.05 in 10.0 mi North 13.8 mph - N/A   Scattered Clouds
10:51 PM 40.6 °F 33.0 °F 33.1 °F 74% 30.05 in 10.0 mi North 13.8 mph - N/A   Scattered Clouds
11:51 PM 39.0 °F 34.0 °F 34.0 °F 82% 30.06 in 10.0 mi NNE 6.9 mph - N/A   Scattered Clouds
11:59 PM 37.4 °F 29.8 °F 33.8 °F 87% 30.05 in 10.0 mi NNE 11.5 mph - N/A   Mostly Cloudy